SWR493Z EDDH-LSZH

Flight info

Callsign SWR493Z
Flight time 1h 2m
Altitude 35000
Route IDEKO9D IDEKO N850 ROBEG DCT SWALM/N0431F340 DCT OMOGI/N0432F350 T721 LAMGO/N0369F230 T721 RILAX
Aircraft A20N/M-SDE2E3FGHIRWXY/LB1

Departure

Time 2026-05-01 14:22
Airport Hamburg Helmut Schmidt Airport (EDDH)

Arrival

Time 2026-05-01 15:24
Airport Zürich Airport (LSZH)
Time Latitude Longitude Altitude Speed Heading
2026-05-01 13:57 53.63373 10.00341 43 ft 0 kts 86°
2026-05-01 14:10 53.63372 10.00332 43 ft 2 kts 86°
2026-05-01 14:10 53.63371 10.00305 42 ft 2 kts 86°
2026-05-01 14:10 53.63370 10.00278 41 ft 2 kts 86°
2026-05-01 14:11 53.63369 10.00252 41 ft 2 kts 86°
2026-05-01 14:11 53.63360 10.00227 40 ft 0 kts 360°
2026-05-01 14:11 53.63353 10.00229 40 ft 1 kts 354°
2026-05-01 14:12 53.63352 10.00229 40 ft 0 kts 355°
2026-05-01 14:13 53.63355 10.00228 40 ft 2 kts 356°
2026-05-01 14:13 53.63366 10.00227 40 ft 1 kts 356°
2026-05-01 14:14 53.63377 10.00226 41 ft 2 kts 358°
2026-05-01 14:14 53.63379 10.00225 41 ft 2 kts 358°
2026-05-01 14:17 53.63393 10.00225 41 ft 6 kts 358°
2026-05-01 14:17 53.63444 10.00217 42 ft 6 kts 351°
2026-05-01 14:18 53.63485 10.00187 42 ft 5 kts 326°
2026-05-01 14:18 53.63493 10.00178 42 ft 0 kts 326°
2026-05-01 14:19 53.63494 10.00177 42 ft 0 kts 325°
2026-05-01 14:19 53.63507 10.00161 42 ft 4 kts 322°
2026-05-01 14:19 53.63544 10.00106 40 ft 9 kts 318°
2026-05-01 14:19 53.63603 10.00016 38 ft 11 kts 289°
2026-05-01 14:20 53.63600 9.99976 37 ft 0 kts 247°
2026-05-01 14:21 53.63589 9.99940 37 ft 23 kts 236°
2026-05-01 14:21 53.63297 9.99356 32 ft 99 kts 230°
2026-05-01 14:21 53.62689 9.98126 37 ft 158 kts 230°
2026-05-01 14:22 53.61089 9.94833 1053 ft 181 kts 229°
2026-05-01 14:22 53.60276 9.93129 1843 ft 179 kts 230°
2026-05-01 14:22 53.59443 9.91358 2451 ft 189 kts 229°
2026-05-01 14:22 53.58556 9.89522 3057 ft 200 kts 228°
2026-05-01 14:23 53.57573 9.87504 3528 ft 222 kts 228°
2026-05-01 14:23 53.56511 9.85311 4124 ft 238 kts 228°
2026-05-01 14:23 53.55374 9.83031 4860 ft 249 kts 227°
2026-05-01 14:23 53.54174 9.80665 5589 ft 260 kts 227°
2026-05-01 14:24 53.52903 9.78182 6347 ft 270 kts 226°
2026-05-01 14:24 53.51649 9.75612 7154 ft 278 kts 230°
2026-05-01 14:24 53.50420 9.72853 8016 ft 284 kts 231°
2026-05-01 14:24 53.49187 9.70033 8916 ft 286 kts 229°
2026-05-01 14:25 53.47840 9.67373 9774 ft 285 kts 226°
2026-05-01 14:25 53.46466 9.64725 10200 ft 286 kts 226°
2026-05-01 14:25 53.45029 9.62194 10352 ft 285 kts 212°
2026-05-01 14:25 53.43056 9.61050 10681 ft 291 kts 183°
2026-05-01 14:26 53.40895 9.60878 11173 ft 306 kts 181°
2026-05-01 14:26 53.36187 9.60409 11923 ft 343 kts 183°
2026-05-01 14:26 53.33603 9.60069 12250 ft 361 kts 184°
2026-05-01 14:27 53.30878 9.59678 12557 ft 378 kts 184°
2026-05-01 14:27 53.28128 9.59263 13089 ft 386 kts 184°
2026-05-01 14:27 53.25284 9.58822 13800 ft 389 kts 184°
2026-05-01 14:28 53.19549 9.57919 15117 ft 397 kts 184°
2026-05-01 14:28 53.16640 9.57459 15735 ft 401 kts 184°
2026-05-01 14:28 53.13689 9.56993 16334 ft 406 kts 184°
2026-05-01 14:28 53.10713 9.56522 16932 ft 410 kts 184°
2026-05-01 14:29 53.07749 9.56053 17507 ft 414 kts 184°
2026-05-01 14:29 53.04707 9.55572 18075 ft 417 kts 184°
2026-05-01 14:30 52.95422 9.54107 19707 ft 429 kts 184°
2026-05-01 14:30 52.92263 9.53610 20245 ft 432 kts 184°
2026-05-01 14:30 52.89140 9.53120 20758 ft 435 kts 184°
2026-05-01 14:31 52.82658 9.52105 21750 ft 442 kts 185°
2026-05-01 14:31 52.79409 9.51595 22233 ft 445 kts 185°
2026-05-01 14:31 52.76157 9.51087 22696 ft 449 kts 185°
2026-05-01 14:31 52.72849 9.50570 23151 ft 452 kts 185°
2026-05-01 14:32 52.69510 9.50050 23592 ft 455 kts 185°
2026-05-01 14:32 52.66205 9.49536 23999 ft 458 kts 185°
2026-05-01 14:32 52.62817 9.49009 24402 ft 461 kts 185°
2026-05-01 14:32 52.59434 9.48485 24793 ft 463 kts 185°
2026-05-01 14:33 52.56039 9.47960 25154 ft 466 kts 185°
2026-05-01 14:33 52.52650 9.47435 25569 ft 466 kts 185°
2026-05-01 14:33 52.49260 9.46912 26054 ft 464 kts 185°
2026-05-01 14:33 52.45848 9.46385 26545 ft 463 kts 185°
2026-05-01 14:34 52.42485 9.45867 26996 ft 462 kts 185°
2026-05-01 14:34 52.39159 9.45356 27415 ft 461 kts 185°
2026-05-01 14:34 52.35786 9.44839 27847 ft 460 kts 185°
2026-05-01 14:34 52.32449 9.44327 28270 ft 459 kts 185°
2026-05-01 14:35 52.29173 9.43827 28682 ft 459 kts 185°
2026-05-01 14:35 52.25805 9.43313 29105 ft 458 kts 185°
2026-05-01 14:35 52.22499 9.42808 29508 ft 457 kts 185°
2026-05-01 14:35 52.19162 9.42301 29901 ft 457 kts 185°
2026-05-01 14:36 52.15864 9.41799 30296 ft 456 kts 185°
2026-05-01 14:36 52.12560 9.41299 30684 ft 455 kts 185°
2026-05-01 14:36 52.09238 9.40794 31053 ft 455 kts 185°
2026-05-01 14:36 52.05969 9.40299 31406 ft 454 kts 185°
2026-05-01 14:37 52.02639 9.39796 31749 ft 454 kts 185°
2026-05-01 14:37 51.99344 9.39299 32072 ft 454 kts 185°
2026-05-01 14:37 51.96019 9.38800 32396 ft 453 kts 185°
2026-05-01 14:37 51.92756 9.38309 32706 ft 453 kts 185°
2026-05-01 14:38 51.89439 9.37811 33012 ft 453 kts 185°
2026-05-01 14:38 51.86219 9.37328 33297 ft 452 kts 185°
2026-05-01 14:38 51.82928 9.36835 33558 ft 452 kts 185°
2026-05-01 14:38 51.79629 9.36341 33779 ft 453 kts 185°
2026-05-01 14:39 51.76319 9.35846 33970 ft 455 kts 185°
2026-05-01 14:39 51.73025 9.35355 34167 ft 456 kts 185°
2026-05-01 14:39 51.69700 9.34859 34355 ft 457 kts 185°
2026-05-01 14:39 51.66425 9.34372 34521 ft 458 kts 185°
2026-05-01 14:40 51.63070 9.33874 34691 ft 459 kts 185°
2026-05-01 14:40 51.59693 9.33374 34863 ft 460 kts 185°
2026-05-01 14:40 51.56362 9.32880 35049 ft 460 kts 185°
2026-05-01 14:40 51.53025 9.32386 35230 ft 461 kts 185°
2026-05-01 14:41 51.49663 9.31890 35307 ft 461 kts 185°
2026-05-01 14:41 51.42931 9.30898 35314 ft 462 kts 185°
2026-05-01 14:42 51.36181 9.29907 35315 ft 462 kts 185°
2026-05-01 14:42 51.29459 9.28923 35310 ft 463 kts 185°
2026-05-01 14:43 51.22687 9.27935 35312 ft 463 kts 185°
2026-05-01 14:43 51.15945 9.26951 35313 ft 463 kts 185°
2026-05-01 14:44 51.09233 9.25975 35311 ft 462 kts 185°
2026-05-01 14:44 50.99137 9.24515 35307 ft 463 kts 185°
2026-05-01 14:45 50.89051 9.23063 35293 ft 463 kts 185°
2026-05-01 14:46 50.82323 9.22093 35290 ft 463 kts 185°
2026-05-01 14:46 50.72165 9.20627 35293 ft 463 kts 186°
2026-05-01 14:47 50.65469 9.19268 35299 ft 463 kts 187°
2026-05-01 14:48 50.55378 9.17192 35297 ft 464 kts 187°
2026-05-01 14:48 50.45234 9.15101 35297 ft 464 kts 188°
2026-05-01 14:49 50.31884 9.12353 35284 ft 464 kts 187°
2026-05-01 14:50 50.18490 9.09616 35279 ft 465 kts 187°
2026-05-01 14:51 50.08403 9.07566 35278 ft 466 kts 188°
2026-05-01 14:52 49.97850 9.05425 35277 ft 464 kts 188°
2026-05-01 14:53 49.87450 9.03324 35282 ft 464 kts 187°
2026-05-01 14:53 49.80520 9.01931 35275 ft 465 kts 188°
2026-05-01 14:54 49.73504 9.00523 35280 ft 473 kts 188°
2026-05-01 14:54 49.66485 8.99114 35283 ft 477 kts 188°
2026-05-01 14:55 49.59450 8.97247 35285 ft 476 kts 191°
2026-05-01 14:55 49.52448 8.95330 35278 ft 476 kts 190°
2026-05-01 14:56 49.45429 8.93409 35282 ft 477 kts 190°
2026-05-01 14:56 49.38378 8.91483 35266 ft 477 kts 191°
2026-05-01 14:57 49.31390 8.89577 35263 ft 477 kts 191°
2026-05-01 14:57 49.20844 8.86707 35255 ft 476 kts 191°
2026-05-01 14:58 49.13790 8.84789 35249 ft 476 kts 191°
2026-05-01 14:58 49.06770 8.82877 35245 ft 477 kts 190°
2026-05-01 14:59 48.99720 8.80960 35239 ft 476 kts 191°
2026-05-01 14:59 48.92727 8.79063 35245 ft 475 kts 191°
2026-05-01 15:00 48.82260 8.76246 35248 ft 477 kts 191°
2026-05-01 15:01 48.75136 8.74340 35250 ft 478 kts 190°
2026-05-01 15:01 48.68098 8.72460 35248 ft 478 kts 190°
2026-05-01 15:02 48.61005 8.70570 35247 ft 478 kts 190°
2026-05-01 15:02 48.53992 8.68705 35247 ft 477 kts 190°
2026-05-01 15:03 48.46907 8.66823 35249 ft 476 kts 190°
2026-05-01 15:03 48.40079 8.65015 35255 ft 466 kts 190°
2026-05-01 15:04 48.33404 8.63124 35259 ft 465 kts 192°
2026-05-01 15:04 48.26699 8.61065 35256 ft 465 kts 192°
2026-05-01 15:05 48.20050 8.59048 34845 ft 467 kts 192°
2026-05-01 15:05 48.16698 8.58041 34180 ft 464 kts 192°
2026-05-01 15:05 48.13325 8.57034 33443 ft 462 kts 192°
2026-05-01 15:05 48.10026 8.56054 32660 ft 463 kts 192°
2026-05-01 15:06 48.06652 8.55051 31823 ft 464 kts 192°
2026-05-01 15:06 48.03277 8.54048 30964 ft 466 kts 192°
2026-05-01 15:06 47.99957 8.53063 30093 ft 467 kts 191°
2026-05-01 15:06 47.96563 8.52533 29125 ft 469 kts 177°
2026-05-01 15:07 47.93190 8.53585 28171 ft 468 kts 158°
2026-05-01 15:07 47.90258 8.56064 27190 ft 468 kts 141°
2026-05-01 15:07 47.87629 8.59288 26198 ft 470 kts 139°
2026-05-01 15:07 47.85010 8.62553 25170 ft 472 kts 139°
2026-05-01 15:08 47.82358 8.65835 24200 ft 471 kts 139°
2026-05-01 15:08 47.79689 8.69104 23566 ft 462 kts 139°
2026-05-01 15:08 47.77062 8.72300 22927 ft 456 kts 140°
2026-05-01 15:08 47.74490 8.75416 22288 ft 451 kts 140°
2026-05-01 15:09 47.71942 8.78496 21650 ft 446 kts 140°
2026-05-01 15:09 47.69418 8.81540 21019 ft 441 kts 140°
2026-05-01 15:09 47.66929 8.84537 20388 ft 437 kts 140°
2026-05-01 15:09 47.64463 8.87580 19725 ft 432 kts 136°
2026-05-01 15:10 47.62313 8.90906 19091 ft 427 kts 130°
2026-05-01 15:10 47.57870 8.97343 17475 ft 428 kts 150°
2026-05-01 15:10 47.54884 8.98839 16619 ft 430 kts 172°
2026-05-01 15:11 47.51769 8.98532 15759 ft 432 kts 194°
2026-05-01 15:11 47.46925 8.92912 14059 ft 428 kts 242°
2026-05-01 15:11 47.46047 8.88583 13357 ft 408 kts 266°
2026-05-01 15:12 47.46435 8.84375 12809 ft 396 kts 291°
2026-05-01 15:12 47.49554 8.77381 11907 ft 371 kts 302°
2026-05-01 15:12 47.50823 8.73919 11649 ft 357 kts 296°
2026-05-01 15:13 47.54951 8.64527 10860 ft 325 kts 314°
2026-05-01 15:14 47.58281 8.59888 10556 ft 301 kts 319°
2026-05-01 15:14 47.59862 8.57760 10422 ft 290 kts 318°
2026-05-01 15:14 47.62931 8.53591 10035 ft 282 kts 318°
2026-05-01 15:15 47.65974 8.49427 9321 ft 282 kts 318°
2026-05-01 15:15 47.69058 8.45193 8623 ft 292 kts 318°
2026-05-01 15:16 47.72199 8.40875 7896 ft 291 kts 319°
2026-05-01 15:16 47.74994 8.36229 7122 ft 284 kts 296°
2026-05-01 15:17 47.75146 8.30401 6338 ft 263 kts 244°
2026-05-01 15:18 47.70731 8.26821 5801 ft 222 kts 186°
2026-05-01 15:18 47.69131 8.26624 5886 ft 211 kts 177°
2026-05-01 15:19 47.65643 8.29474 5905 ft 178 kts 130°
2026-05-01 15:19 47.63729 8.32478 5464 ft 198 kts 133°
2026-05-01 15:19 47.62668 8.33977 5131 ft 201 kts 134°
2026-05-01 15:20 47.60451 8.36877 4555 ft 200 kts 136°
2026-05-01 15:20 47.59363 8.38345 4247 ft 197 kts 134°
2026-05-01 15:20 47.58321 8.39804 3938 ft 195 kts 134°
2026-05-01 15:21 47.57291 8.41275 3647 ft 189 kts 133°
2026-05-01 15:21 47.56321 8.42634 3424 ft 179 kts 134°
2026-05-01 15:21 47.55376 8.43911 3180 ft 170 kts 135°
2026-05-01 15:21 47.54445 8.45137 2997 ft 166 kts 136°
2026-05-01 15:22 47.52671 8.47462 2603 ft 152 kts 132°
2026-05-01 15:22 47.51886 8.48613 2328 ft 150 kts 133°
2026-05-01 15:22 47.51075 8.49711 2136 ft 152 kts 135°
2026-05-01 15:23 47.50263 8.50789 1902 ft 147 kts 135°
2026-05-01 15:23 47.49490 8.51865 1740 ft 145 kts 134°
2026-05-01 15:23 47.48731 8.52915 1567 ft 142 kts 134°
2026-05-01 15:23 47.47961 8.53950 1413 ft 137 kts 134°
2026-05-01 15:24 47.47287 8.54873 1385 ft 108 kts 136°
2026-05-01 15:24 47.46761 8.55597 1388 ft 86 kts 135°
2026-05-01 15:24 47.46424 8.56048 1396 ft 35 kts 141°
2026-05-01 15:24 47.46235 8.56281 1401 ft 32 kts 139°
2026-05-01 15:25 47.46036 8.56326 1403 ft 16 kts 186°
2026-05-01 15:25 47.46011 8.56322 1404 ft 2 kts 186°
2026-05-01 15:25 47.45985 8.56317 1404 ft 5 kts 186°
2026-05-01 15:25 47.45921 8.56309 1404 ft 11 kts 184°
2026-05-01 15:26 47.45821 8.56298 1404 ft 16 kts 184°
2026-05-01 15:26 47.45728 8.56286 1406 ft 11 kts 184°
2026-05-01 15:26 47.45632 8.56264 1408 ft 14 kts 193°
2026-05-01 15:26 47.45541 8.56238 1411 ft 10 kts 182°
2026-05-01 15:27 47.45485 8.56189 1412 ft 9 kts 250°
2026-05-01 15:27 47.45477 8.56076 1408 ft 9 kts 217°
2026-05-01 15:27 47.45431 8.56064 1409 ft 5 kts 185°
2026-05-01 15:28 47.45409 8.56061 1409 ft 0 kts 185°